Regional Weather Roundup
Issued by NWS

Home | Current Version | Previous Version | Graphics & Text | Print | Product List | Glossary On
Versions: 1 2 3 4 5 6 7 8 9 10 11 12 13 14 15 16 17 18 19 20 21 22 23 24 25 26 27 28 29 30 31 32 33 34 35 36 37 38 39 40 41 42 43 44 45 46 47 48 49 50
000
ASUS45 KSLC 080810
RWRUT

UTAH REGIONAL WEATHER ROUNDUP
NATIONAL WEATHER SERVICE SALT LAKE CITY UT
100 AM MST THU DEC 08 2016

UTZ001>011-023>025-080900-

NORTHERN UTAH

CITY           SKY/WX    TMP DP  RH WIND       PRES   REMARKS
BRIGHAM CITY     N/A     15   9  76 NW3       30.33S
HILL AFB       PTCLDY    13   4  65 E17       30.28F WCI  -3
LOGAN          CLEAR     11   7  84 CALM      30.33F
OGDEN          PTCLDY    15   6  67 S7        30.29F WCI   5
SALT LAKE CITY MOCLDY    21   9  59 SE6       30.30F WCI  13
TOOELE VALLEY  MOCLDY    19  12  73 S6        30.30F WCI  11
WENDOVER       PTCLDY    19   7  58 CALM      30.30F
HEBER CITY     MOCLDY    10   5  79 E3        30.26F
WEST JORDAN    MOCLDY    19  15  84 CALM      30.29F

$$

UTZ011>015-024>027-080900-

CENTRAL/NORTHEAST UTAH

CITY           SKY/WX    TMP DP  RH WIND       PRES   REMARKS
PROVO AIRPORT  MOCLDY    19   7  59 S3        30.30F
MOAB/CANYONLAN CLEAR     17   2  51 W5        30.29F WCI  10
DELTA          MOCLDY    16  10  79 CALM      30.27S
PRICE          MOCLDY    12  -5  46 CALM      30.23S
RICHFIELD      MOCLDY    14   9  79 CALM      30.29F
ROOSEVELT      CLOUDY    12   3  67 CALM      30.34F
VERNAL         CLOUDY    10   1  67 W3        30.31F

$$

UTZ013>016-019>022-027-080900-

SOUTHERN UTAH

CITY           SKY/WX    TMP DP  RH WIND       PRES   REMARKS
BRYCE CANYON   PTCLDY     1  -5  75 W7        30.19F WCI -12
CEDAR CITY     MOCLDY    14   6  70 SE5       30.19F WCI   6
MILFORD        PTCLDY    11   4  73 S3        30.24F
ST GEORGE        N/A    N/A N/A N/A MISG        N/A
HANKSVILLE     PTCLDY    12   1  62 CALM      30.33S
KANAB          CLEAR     27   7  43 N15       30.26F WCI  15
BLANDING       PTCLDY    18   0  45 N10       30.32S WCI   6

$$

REGIONAL REPORTS     COLORADO/ARIZONA

CITY           SKY/WX    TMP DP  RH WIND       PRES   REMARKS
CRAIG, CO      CLOUDY    -8 -14  74 SW3       30.30F
GRAND JUNCTION CLEAR     19   7  59 E12       30.31S WCI   7
RIFLE, CO      CLOUDY     7   0  73 SE3       30.33S
MONTROSE, CO   CLOUDY    11   4  73 SE10      30.33R WCI  -3
CORTEZ, CO     CLOUDY    11   4  73 NE5       30.26S WCI   3
COLORADO CITY    N/A     32  10  40 NE12      30.22F WCI  23
PAGE, AZ       PTCLDY    29   2  31 CALM      30.25S
GRAND CANYON   NOT AVBL
KINGMAN, AZ    CLEAR     33   6  32 E9        30.17S WCI  25
FLAGSTAFF, AZ  PTCLDY    19  15  84 NE3       30.16F

$$

REGIONAL REPORTS    NEVADA/IDAHO/WYOMING

CITY           SKY/WX    TMP DP  RH WIND       PRES   REMARKS
LAS VEGAS, NV  PTCLDY    39   6  25 S6        30.20F WCI  35
ELY, NY        CLOUDY    16   5  62 CALM      30.18S
ELKO, NV       CLOUDY    21   6  52 E5        30.17F WCI  15
POCATELLO, ID  CLOUDY    -8 -10  91 E5        30.33F WCI -19
BURLEY, ID     MOCLDY     6   3  87 NE5       30.30S WCI  -3
FORT BRIDGER,    N/A      3  -1  80 CALM      30.22F
EVANSTON, WY   CLOUDY     1  -9  62 E7        30.18F WCI -12
ROCK SPRINGS,  CLOUDY    -5  -9  83 CALM      30.24S
KEMMERER, WY     N/A     -8 -15  71 N12       30.20S WCI -27

$$



USA.gov is the U.S. government's official web portal to all federal, state and local government web resources and services.